Wind_Speed
8 8 7 7 8 8 9 11 13 14 15 16 17 18 19 21 22 24 27 29 31 33 35 36 37 37 37 37 38 38 39 40 40 40 40 39 39 38 37 37 37 37 37 37
8 8 7 8 8 9 11 12 13 14 15 16 18 19 20 21 23 26 28 30 33 35 36 37 37 37 37 38 39 39 40 40 41 41 40 39 38 37 37 37 36 36 36 35
8 8 8 8 8 9 11 13 14 15 16 17 18 19 20 22 24 27 30 32 34 36 37 37 37 37 38 39 40 40 40 41 41 41 40 38 37 37 37 37 36 35 34 34
9 9 8 8 10 11 12 13 15 16 17 18 19 19 21 23 25 28 31 33 35 36 37 37 38 38 39 40 40 41 40 40 41 40 39 37 36 37 36 35 35 34 33 33
9 9 8 9 11 12 13 14 15 16 17 18 18 20 22 24 26 29 31 34 35 36 37 38 38 39 40 40 41 41 40 40 41 40 38 37 36 36 36 35 35 33 32 32
10 9 8 9 11 13 14 14 15 16 17 18 19 20 22 25 27 29 32 34 35 36 37 38 39 39 40 40 40 40 40 40 41 39 38 36 36 36 36 35 34 33 32 31
10 10 10 11 12 14 14 15 15 16 17 18 20 21 23 25 28 30 32 34 35 36 38 38 39 40 40 40 40 40 40 40 41 39 38 37 36 37 36 35 34 32 31 31
11 11 12 13 14 15 15 16 17 17 18 19 21 22 24 26 29 30 32 34 35 37 38 39 39 39 40 40 40 41 40 40 41 39 38 37 36 36 36 35 34 32 31 30
11 12 13 14 15 16 16 17 18 18 19 20 22 23 25 27 29 31 32 34 35 37 38 39 39 40 39 40 41 41 41 41 41 40 38 37 37 36 35 35 34 33 31 29
13 13 14 15 16 17 18 18 19 19 20 21 22 24 26 27 29 31 33 34 36 37 38 39 39 39 39 40 41 41 41 41 40 39 38 37 37 36 35 35 34 32 31 29
15 15 15 16 17 18 18 19 20 20 21 22 23 24 26 27 29 31 33 35 36 37 38 38 39 39 40 41 42 41 41 41 40 39 38 37 37 36 35 34 34 33 31 29
17 17 17 17 18 18 19 20 20 21 22 22 23 25 27 28 30 32 33 35 36 37 38 39 39 39 40 41 42 41 41 40 40 39 38 37 36 35 34 34 34 33 31 29
19 19 18 19 19 19 20 21 21 22 23 23 25 26 28 29 30 32 33 35 36 37 38 39 39 40 41 41 42 41 41 40 40 39 37 36 36 35 33 33 33 32 30 29
21 20 20 20 20 21 21 22 22 23 24 25 26 27 28 29 30 31 33 35 36 37 38 39 40 41 42 41 41 41 40 40 39 39 37 36 35 34 33 32 31 30 29 28
22 22 21 21 22 22 23 23 23 24 26 26 26 27 29 30 31 33 34 35 37 38 39 40 41 42 42 42 41 40 40 39 39 38 37 36 34 34 33 32 31 30 29 28
23 23 23 23 24 24 25 25 25 26 27 27 28 29 30 31 32 34 35 37 38 39 40 41 41 41 42 41 41 40 39 38 38 37 36 35 34 33 32 31 30 29 28 27
26 26 26 26 26 27 27 27 27 28 29 30 30 31 32 33 34 35 37 37 39 40 42 42 42 42 42 41 40 39 38 37 37 36 35 34 33 32 30 29 28 27 27 27
28 28 29 29 29 30 30 30 31 31 32 32 33 33 34 35 37 38 39 39 40 42 43 43 43 42 42 40 40 38 37 36 35 34 33 33 32 30 29 28 27 26 25 25
30 30 31 31 32 32 33 33 34 34 34 35 35 36 38 38 40 42 42 42 43 43 44 44 43 43 42 40 39 37 35 34 34 33 32 31 30 29 27 26 25 24 23 23
32 32 33 33 34 35 35 36 38 38 37 37 39 40 41 42 43 44 44 44 44 45 45 44 44 42 41 39 38 36 34 33 32 32 30 29 28 27 25 24 23 21 21 21
34 35 35 36 37 38 38 39 40 41 41 42 43 44 45 45 46 46 47 46 46 46 45 44 43 42 41 38 36 34 33 32 31 30 28 27 26 25 24 22 20 19 19 19
38 39 39 40 40 40 41 42 43 44 45 47 48 48 48 48 48 49 48 47 47 46 45 43 42 41 40 37 34 32 31 30 29 28 26 25 24 23 21 20 19 17 17 17
41 42 42 43 44 44 45 46 47 48 49 49 50 50 51 51 50 50 49 48 48 47 45 44 42 41 38 35 33 31 29 29 28 26 24 23 22 21 19 18 17 16 15 15
45 45 46 47 47 48 49 49 50 51 52 52 52 52 52 52 51 51 50 49 48 46 44 42 41 39 36 34 32 30 28 27 26 24 23 21 20 19 18 16 15 13 13 13
49 49 50 50 51 52 52 53 53 54 54 54 53 53 53 53 51 50 49 48 47 45 42 40 39 37 34 32 30 29 27 25 24 22 21 20 19 18 16 14 13 12 11 10
52 52 53 54 54 55 55 55 55 55 55 54 54 53 53 52 51 49 48 47 45 42 40 38 36 34 32 30 29 27 25 23 22 21 19 18 16 15 14 13 11 10 9 8
55 55 56 57 57 58 58 58 57 57 56 55 54 53 52 51 49 48 46 44 42 40 38 36 34 33 31 30 29 26 24 22 20 19 17 15 14 13 13 11 10 9 7 6
Wind_Direction
277 274 275 276 283 293 303 310 314 318 321 325 328 333 336 338 340 341 341 341 341 341 340 338 337 336 336 335 333 332 330 329 328 326 324 322 319 316 313 309 306 303 299 296
279 278 280 280 285 289 297 304 309 314 318 323 328 333 335 337 339 341 341 342 342 342 340 339 338 338 337 336 335 334 333 331 330 328 326 325 323 320 317 313 310 307 303 300
286 288 288 283 286 289 297 305 309 313 320 324 329 332 334 337 339 341 341 342 342 341 341 340 340 340 339 338 337 336 335 334 333 332 330 329 327 324 322 318 315 311 308 304
287 287 288 291 290 295 300 306 310 315 321 326 330 332 334 337 339 340 341 341 342 341 341 342 342 341 341 340 340 339 338 337 337 335 334 332 331 330 328 325 322 318 313 309
285 288 292 290 293 296 301 305 309 315 321 326 329 332 334 337 339 340 341 341 341 342 342 343 343 342 342 342 341 341 340 339 339 338 336 335 333 332 331 329 326 323 319 316
283 288 294 291 294 299 305 308 312 317 321 326 330 332 334 336 338 339 340 341 341 342 343 343 343 343 343 343 342 342 342 341 340 340 338 337 335 335 334 333 330 327 324 321
280 289 296 296 301 304 310 315 317 320 324 328 331 332 333 334 336 338 339 340 342 342 343 343 344 344 344 343 343 343 343 342 342 341 340 339 338 338 337 336 334 332 330 327
284 295 298 299 304 308 312 315 318 321 324 327 328 330 331 333 335 337 338 339 341 342 343 343 344 344 344 344 344 344 343 343 343 342 342 342 341 341 340 339 337 335 333 331
288 296 298 302 305 307 310 313 316 319 322 324 326 328 330 333 335 337 338 339 340 341 342 343 343 344 344 344 344 344 344 344 344 343 343 343 343 343 342 342 340 339 338 336
289 295 298 300 303 305 307 310 313 315 318 320 323 326 329 332 335 337 338 339 340 341 342 343 343 344 344 344 344 344 344 344 344 344 344 344 345 345 344 344 343 342 342 341
283 288 292 296 298 301 304 306 308 311 314 316 320 324 328 331 334 335 337 338 339 340 341 342 343 343 343 344 344 345 345 345 345 345 345 345 345 345 345 345 346 346 345 344
280 284 288 292 294 297 299 301 304 307 310 314 318 322 326 329 331 333 335 336 338 339 340 341 342 342 342 343 344 344 345 345 345 345 345 345 346 346 346 347 348 349 349 348
280 283 286 290 292 294 296 298 301 304 308 312 316 320 324 327 329 332 334 335 337 338 339 341 342 342 342 342 343 343 344 344 345 345 345 346 347 348 348 348 348 350 352 352
280 282 285 288 291 293 295 297 300 302 305 309 313 317 321 324 327 330 332 333 335 337 338 339 340 341 341 341 342 343 343 344 344 345 346 346 347 349 350 350 350 352 354 355
277 280 282 285 288 290 291 294 296 299 302 305 310 313 316 320 323 326 328 331 333 335 336 337 338 339 340 340 340 341 342 342 343 344 345 346 347 349 351 352 353 355 356 357
274 276 278 280 282 284 286 289 290 295 299 303 307 309 313 315 318 322 325 328 330 332 334 335 336 337 338 338 338 339 340 340 342 343 344 345 346 348 352 353 354 357 358 359
272 274 275 276 279 282 283 286 290 293 296 299 302 305 309 312 313 317 321 323 325 327 330 332 333 333 334 336 336 337 338 338 339 341 342 344 345 347 351 354 356 357 359 2
270 272 274 276 278 280 282 286 289 291 294 297 299 300 303 307 310 314 317 319 321 323 326 328 329 329 330 332 333 333 335 336 338 339 340 342 344 345 349 352 355 357 359 3
271 272 274 276 277 279 282 285 288 289 292 295 297 298 301 304 308 311 314 316 318 319 321 323 324 326 326 327 329 330 331 332 335 337 337 340 342 344 346 349 353 357 1 4
273 274 275 277 278 280 281 284 287 288 290 292 296 298 300 302 306 308 310 312 313 315 317 319 320 322 323 323 325 326 327 328 331 333 334 337 339 342 345 348 351 355 1 6
274 274 275 277 278 279 281 283 284 286 289 292 294 296 298 301 303 305 307 308 309 311 313 314 316 317 319 320 321 322 323 325 328 330 331 333 336 339 342 346 350 354 360 4
274 275 276 276 277 279 280 282 284 286 288 290 292 294 296 298 300 303 305 306 307 309 310 310 311 313 315 316 317 318 319 322 324 327 328 330 332 335 338 343 348 352 357 3
275 276 276 277 277 279 280 281 283 285 287 289 291 293 295 297 298 300 302 303 304 305 306 306 307 309 310 312 313 314 314 316 320 322 325 327 329 331 335 339 344 349 355 1
276 276 277 278 279 280 281 282 284 286 288 289 290 292 294 295 296 298 299 300 302 303 303 303 304 305 305 306 308 308 309 311 314 317 320 322 324 327 329 333 339 344 351 359
277 278 278 279 279 280 281 282 283 285 286 288 289 291 292 293 294 296 297 298 299 299 300 299 299 300 301 302 302 302 303 305 308 311 313 315 318 320 323 327 332 338 344 354
278 278 279 279 280 280 281 282 283 284 285 286 288 289 290 291 292 293 294 295 296 296 296 296 296 296 295 295 296 296 297 298 302 306 308 311 314 315 318 322 327 330 336 346
279 280 280 280 281 282 283 283 284 285 286 287 287 288 289 290 290 290 291 291 292 292 291 290 290 289 289 290 291 291 291 291 294 298 300 303 307 310 311 313 318 322 327 337
Height
5843 5843 5842 5842 5841 5840 5839 5838 5836 5835 5832 5831 5828 5825 5822 5818 5814 5810 5806 5801 5796 5790 5784 5778 5771 5765 5759 5752 5745 5739 5732 5725 5717 5710 5703 5696 5689 5682 5676 5671 5665 5660 5656 5652
5841 5840 5840 5839 5839 5837 5836 5835 5833 5832 5830 5827 5824 5821 5818 5814 5810 5806 5802 5796 5791 5785 5779 5773 5766 5760 5753 5746 5739 5732 5724 5717 5709 5701 5694 5686 5679 5673 5666 5660 5654 5649 5644 5640
5839 5838 5838 5837 5836 5835 5834 5832 5831 5829 5827 5824 5821 5818 5814 5811 5807 5802 5797 5792 5786 5780 5774 5768 5761 5754 5747 5740 5733 5725 5717 5710 5702 5694 5686 5678 5671 5664 5657 5650 5644 5639 5633 5628
5837 5837 5836 5837 5833 5832 5831 5829 5827 5825 5823 5820 5818 5814 5811 5807 5803 5798 5793 5788 5782 5776 5770 5763 5756 5749 5742 5734 5727 5719 5711 5703 5695 5686 5678 5671 5663 5656 5649 5642 5635 5629 5624 5618
5835 5834 5833 5833 5831 5829 5828 5827 5824 5822 5819 5817 5814 5811 5807 5803 5799 5795 5789 5784 5778 5772 5765 5758 5751 5744 5736 5729 5721 5713 5705 5697 5689 5680 5672 5665 5657 5650 5642 5634 5628 5621 5615 5609
5832 5831 5831 5831 5828 5826 5826 5823 5821 5818 5816 5813 5810 5808 5804 5800 5795 5791 5785 5780 5774 5767 5761 5754 5747 5739 5732 5724 5716 5708 5700 5692 5684 5675 5667 5659 5652 5644 5636 5628 5621 5614 5607 5601
5829 5828 5827 5827 5825 5823 5822 5821 5818 5815 5812 5809 5806 5804 5800 5796 5791 5787 5782 5776 5770 5763 5756 5749 5742 5735 5727 5719 5712 5704 5695 5687 5679 5670 5662 5654 5646 5638 5630 5622 5615 5607 5601 5594
5826 5825 5826 5822 5821 5819 5818 5815 5813 5811 5808 5805 5803 5799 5796 5792 5787 5783 5777 5772 5766 5759 5752 5745 5738 5730 5723 5715 5708 5699 5691 5683 5674 5666 5658 5650 5641 5633 5625 5617 5610 5602 5595 5588
5823 5823 5820 5818 5817 5815 5813 5811 5809 5807 5804 5802 5799 5795 5792 5788 5783 5778 5773 5767 5761 5755 5748 5741 5734 5727 5719 5712 5704 5695 5687 5679 5670 5662 5653 5645 5637 5629 5621 5613 5605 5597 5590 5583
5818 5817 5816 5814 5812 5811 5809 5807 5805 5803 5800 5798 5795 5791 5787 5783 5779 5774 5769 5763 5757 5751 5744 5737 5730 5723 5715 5708 5700 5692 5683 5675 5667 5658 5650 5641 5633 5625 5617 5609 5601 5594 5586 5579
5813 5812 5811 5810 5808 5806 5804 5802 5800 5798 5796 5793 5790 5787 5783 5779 5774 5770 5764 5759 5753 5747 5740 5733 5726 5719 5712 5704 5696 5688 5680 5671 5663 5655 5646 5638 5630 5622 5614 5606 5598 5590 5583 5575
5807 5807 5806 5805 5803 5802 5800 5798 5796 5794 5791 5788 5785 5782 5778 5774 5770 5765 5760 5754 5749 5742 5736 5729 5722 5715 5708 5700 5692 5684 5676 5668 5660 5652 5643 5635 5627 5619 5611 5603 5596 5588 5580 5573
5802 5801 5800 5800 5798 5797 5795 5793 5791 5788 5786 5783 5780 5777 5773 5769 5765 5760 5755 5750 5744 5738 5732 5725 5718 5711 5704 5696 5689 5681 5673 5665 5657 5649 5641 5633 5625 5617 5609 5602 5594 5586 5579 5572
5795 5795 5794 5794 5792 5791 5789 5787 5785 5783 5780 5777 5774 5771 5767 5763 5759 5755 5750 5745 5739 5734 5727 5721 5714 5707 5700 5692 5685 5677 5669 5662 5654 5646 5638 5631 5623 5615 5607 5600 5592 5585 5578 5571
5789 5789 5788 5787 5786 5784 5783 5781 5779 5776 5774 5771 5768 5765 5761 5757 5753 5749 5745 5740 5734 5729 5723 5716 5709 5703 5695 5688 5681 5673 5666 5659 5651 5643 5636 5629 5621 5613 5606 5598 5591 5584 5577 5571
5783 5782 5781 5780 5779 5777 5776 5774 5772 5770 5767 5764 5761 5758 5755 5751 5747 5743 5739 5734 5729 5723 5717 5711 5704 5698 5691 5684 5677 5669 5662 5655 5648 5641 5634 5627 5619 5612 5605 5598 5591 5584 5577 5571
5775 5775 5774 5773 5772 5770 5769 5767 5765 5762 5760 5757 5754 5751 5747 5744 5740 5736 5732 5727 5722 5717 5711 5705 5699 5692 5686 5679 5672 5665 5659 5652 5645 5638 5631 5625 5618 5611 5604 5597 5591 5584 5578 5572
5767 5767 5766 5765 5764 5762 5761 5759 5757 5754 5752 5749 5746 5743 5739 5736 5732 5728 5724 5719 5715 5710 5704 5699 5692 5686 5680 5674 5667 5661 5655 5648 5642 5636 5629 5623 5616 5610 5603 5597 5591 5585 5579 5573
5758 5758 5757 5756 5755 5753 5751 5750 5747 5745 5742 5740 5737 5734 5731 5727 5723 5720 5715 5711 5706 5702 5697 5691 5685 5679 5674 5668 5662 5656 5650 5644 5638 5632 5626 5620 5614 5608 5602 5597 5591 5585 5580 5574
5749 5748 5748 5746 5745 5743 5741 5739 5737 5735 5732 5730 5727 5724 5721 5717 5714 5710 5707 5702 5698 5693 5688 5683 5678 5672 5667 5661 5656 5651 5645 5640 5634 5629 5623 5618 5612 5607 5601 5596 5591 5586 5581 5576
5739 5738 5737 5736 5734 5732 5731 5729 5726 5724 5722 5719 5717 5714 5711 5707 5704 5700 5696 5692 5688 5683 5679 5674 5669 5664 5659 5654 5650 5645 5640 5635 5630 5625 5620 5615 5610 5605 5600 5595 5591 5586 5582 5577
5727 5726 5725 5724 5722 5720 5718 5716 5714 5712 5710 5708 5705 5702 5699 5696 5693 5689 5685 5681 5677 5673 5669 5665 5660 5656 5651 5647 5643 5639 5634 5630 5625 5621 5616 5612 5608 5603 5599 5595 5590 5586 5583 5579
5715 5714 5712 5711 5710 5708 5706 5704 5702 5700 5697 5695 5692 5689 5686 5683 5680 5677 5674 5670 5666 5662 5659 5655 5651 5647 5643 5639 5636 5632 5628 5624 5621 5617 5612 5609 5605 5601 5597 5594 5590 5586 5583 5579
5701 5700 5699 5697 5696 5694 5692 5690 5688 5686 5683 5681 5678 5675 5673 5670 5667 5664 5661 5658 5654 5651 5647 5644 5640 5637 5634 5631 5628 5625 5622 5619 5615 5612 5609 5605 5602 5598 5595 5592 5589 5586 5583 5580
5686 5685 5684 5682 5681 5679 5677 5676 5674 5671 5669 5667 5664 5661 5658 5655 5653 5651 5647 5644 5641 5638 5636 5633 5630 5627 5625 5622 5620 5618 5615 5612 5610 5607 5604 5601 5598 5596 5593 5590 5587 5585 5582 5580
5671 5669 5667 5666 5664 5662 5661 5659 5658 5656 5654 5652 5649 5647 5644 5641 5639 5636 5634 5631 5629 5626 5624 5622 5620 5617 5615 5614 5612 5610 5608 5606 5604 5602 5599 5597 5594 5592 5590 5588 5586 5584 5581 5579
5653 5651 5650 5648 5646 5645 5643 5641 5640 5638 5637 5635 5633 5631 5628 5626 5624 5622 5620 5618 5616 5614 5612 5611 5609 5607 5606 5605 5603 5602 5601 5599 5598 5596 5594 5593 5591 5589 5587 5586 5584 5582 5580 5579